M0ZPG Weather Reports


time (UTC)temp
C
wind
direction
speed
KPH
gust
KPH
rain 1hr
cm
rain 24hr
cm
rain mn
cm
humidity
%
barometer
mb
20260905184505 20 169 1.6 8.0 0.00 0.00 0.00 57 1023.6
20260905183815 21 212 0.0 6.4 0.00 0.00 0.00 54 1023.5
20260905182708 21 222 0.0 1.6 0.00 0.00 0.00 51 1023.4
20260905181805 21 222 0.0 3.2 0.00 0.00 0.00 50 1023.3
20260905180904 21 221 0.0 1.6 0.00 0.00 0.00 49 1023.3
20260905180006 22 221 0.0 1.6 0.00 0.00 0.00 49 1023.2
20260905175405 22 221 0.0 4.8 0.00 0.00 0.00 49 1023.2
20260905174506 22 221 0.0 6.4 0.00 0.00 0.00 48 1023.2
20260905173606 22 218 0.0 1.6 0.00 0.00 0.00 48 1023.3
20260905172704 22 217 0.0 3.2 0.00 0.00 0.00 47 1023.3
20260905171804 23 217 0.0 3.2 0.00 0.00 0.00 46 1023.3
20260905170906 23 217 0.0 3.2 0.00 0.00 0.00 45 1023.3
20260905170005 23 217 0.0 3.2 0.00 0.00 0.00 45 1023.3
20260905165406 23 216 0.0 4.8 0.00 0.00 0.00 45 1023.3
20260905164504 23 224 0.0 4.8 0.00 0.00 0.00 44 1023.3
20260905163606 24 272 0.0 3.2 0.00 0.00 0.00 44 1023.3
20260905162919 24 269 1.6 6.4 0.00 0.00 0.00 44 1023.3
20260905161805 24 207 0.0 3.2 0.00 0.00 0.00 43 1023.4
20260905160905 24 198 1.6 6.4 0.00 0.00 0.00 43 1023.4
20260905160216 24 207 1.6 8.0 0.00 0.00 0.00 43 1023.4
20260905155612 25 196 1.6 11.3 0.00 0.00 0.00 43 1023.4
20260905154503 24 287 1.6 6.4 0.00 0.00 0.00 43 1023.4
20260905153605 24 303 1.6 6.4 0.00 0.00 0.00 43 1023.5
20260905152703 24 237 1.6 6.4 0.00 0.00 0.00 43 1023.6
20260905151805 24 213 1.6 3.2 0.00 0.00 0.00 45 1023.6
20260905150905 23 250 0.0 4.8 0.00 0.00 0.00 45 1023.6
20260905150005 23 271 1.6 4.8 0.00 0.00 0.00 46 1023.5
20260905145406 23 267 1.6 4.8 0.00 0.00 0.00 47 1023.6
20260905144505 23 285 1.6 6.4 0.00 0.00 0.00 46 1023.6
20260905143603 23 317 1.6 3.2 0.00 0.00 0.00 47 1023.6
20260905142705 23 343 1.6 8.0 0.00 0.00 0.00 47 1023.6
20260905141805 23 9 1.6 8.0 0.00 0.00 0.00 46 1023.6
20260905140903 24 291 1.6 6.4 0.00 0.00 0.00 46 1023.6
20260905140005 24 242 1.6 4.8 0.00 0.00 0.00 45 1023.6
20260905135404 24 238 0.0 4.8 0.00 0.00 0.00 46 1023.5
20260905134504 24 237 1.6 6.4 0.00 0.00 0.00 46 1023.5
20260905133818 23 328 1.6 8.0 0.00 0.00 0.00 47 1023.5
20260905132704 23 305 1.6 6.4 0.00 0.00 0.00 48 1023.4
20260905131803 23 260 1.6 6.4 0.00 0.00 0.00 49 1023.5
20260905131115 23 244 1.6 6.4 0.00 0.00 0.00 49 1023.5
20260905130006 22 237 1.6 8.0 0.00 0.00 0.00 50 1023.5
20260905125614 22 240 1.6 4.8 0.00 0.00 0.00 50 1023.4
20260905124508 22 228 1.6 8.0 0.00 0.00 0.00 51 1023.6
20260905123814 22 216 1.6 8.0 0.00 0.00 0.00 50 1023.4
20260905122703 22 315 1.6 6.4 0.00 0.00 0.00 51 1023.3
20260905121805 22 348 1.6 9.7 0.00 0.00 0.00 51 1023.1
20260905120903 22 302 1.6 8.0 0.00 0.00 0.00 52 1023.2
20260905120004 22 356 1.6 4.8 0.00 0.00 0.00 53 1023.2
20260905115403 21 340 1.6 8.0 0.00 0.00 0.00 53 1023.2
20260905114505 22 319 3.2 8.0 0.00 0.00 0.00 51 1023.2
20260905113603 22 305 1.6 6.4 0.00 0.00 0.00 52 1023.4
20260905112704 22 333 1.6 12.9 0.00 0.00 0.00 51 1023.5
20260905112019 22 325 1.6 12.9 0.00 0.00 0.00 53 1023.5
20260905110906 22 260 1.6 11.3 0.00 0.00 0.00 54 1023.3
20260905110017 21 299 1.6 4.8 0.00 0.00 0.00 55 1023.5
20260905105405 21 310 1.6 9.7 0.00 0.00 0.00 55 1023.5
20260905104504 21 251 1.6 6.4 0.00 0.00 0.00 55 1023.4
20260905103604 21 286 1.6 8.0 0.00 0.00 0.00 56 1023.3
20260905102705 21 269 1.6 4.8 0.00 0.00 0.00 58 1023.3
20260905101805 20 331 1.6 8.0 0.00 0.00 0.00 60 1023.3
20260905100905 20 334 1.6 6.4 0.00 0.00 0.00 61 1023.2
20260905100007 20 312 1.6 6.4 0.00 0.00 0.00 60 1023.1
20260905095404 20 327 1.6 6.4 0.00 0.00 0.00 62 1023.0
20260905094506 20 318 1.6 6.4 0.00 0.00 0.00 62 1023.1
20260905092703 19 313 1.6 9.7 0.00 0.00 0.00 65 1022.9
20260905091804 18 289 1.6 8.0 0.00 0.00 0.00 66 1022.8
20260905090903 18 333 1.6 6.4 0.00 0.00 0.00 68 1022.7
20260905090003 18 309 1.6 6.4 0.00 0.00 0.00 69 1022.6
20260905085617 18 317 1.6 6.4 0.00 0.00 0.00 70 1022.6
20260905084504 17 309 1.6 4.8 0.00 0.00 0.00 71 1022.6
20260905083816 17 306 0.0 4.8 0.00 0.00 0.00 72 1022.6
20260905082705 17 316 1.6 4.8 0.00 0.00 0.00 73 1022.6
20260905081805 16 252 1.6 9.7 0.00 0.00 0.00 75 1022.4
20260905081118 16 248 1.6 6.4 0.00 0.00 0.00 76 1022.4
20260905080005 16 245 1.6 9.7 0.00 0.08 0.00 76 1022.4
20260905075408 16 264 1.6 6.4 0.00 0.08 0.00 78 1022.5
20260905074715 15 292 1.6 6.4 0.00 0.08 0.00 78 1022.3
20260905073603 15 255 1.6 12.9 0.00 0.08 0.00 79 1022.2
20260905072703 15 258 1.6 6.4 0.00 0.08 0.00 80 1022.1
20260905071804 15 252 0.0 6.4 0.00 0.08 0.00 80 1021.9
20260905070904 14 249 0.0 3.2 0.00 0.08 0.00 83 1021.8
20260905070004 13 228 1.6 6.4 0.00 0.08 0.00 84 1021.8
20260905065405 13 206 0.0 4.8 0.00 0.08 0.00 85 1021.8
20260905064503 13 220 0.0 4.8 0.00 0.08 0.00 87 1021.7
20260905063605 12 218 0.0 3.2 0.00 0.08 0.00 89 1021.5
20260905062703 12 218 0.0 4.8 0.00 0.08 0.00 89 1021.4
20260905061803 12 216 0.0 4.8 0.00 0.08 0.00 90 1021.4
20260905060906 12 192 0.0 4.8 0.00 0.08 0.00 90 1021.2
20260905060004 12 171 0.0 1.6 0.00 0.08 0.00 90 1021.1
20260905055403 12 171 0.0 3.2 0.00 0.08 0.00 90 1021.1
20260905054716 12 189 0.0 6.4 0.00 0.08 0.00 90 1021.0
20260905053603 12 252 0.0 4.8 0.00 0.08 0.00 90 1020.9
20260905052707 12 249 0.0 4.8 0.00 0.08 0.00 89 1020.8
20260905052013 12 248 0.0 3.2 0.00 0.08 0.00 89 1020.7
20260905050905 12 248 0.0 4.8 0.00 0.08 0.00 89 1020.7
20260905050003 12 248 0.0 4.8 0.00 0.08 0.00 89 1020.6
20260905045405 12 248 0.0 4.8 0.00 0.08 0.00 89 1020.5
20260905044505 12 244 0.0 3.2 0.00 0.08 0.00 89 1020.2
20260905043605 12 250 0.0 4.8 0.00 0.08 0.00 88 1020.2
20260905042703 12 260 0.0 4.8 0.00 0.08 0.00 88 1020.2
20260905041805 12 253 0.0 6.4 0.00 0.08 0.00 88 1020.1
20260905040905 12 214 0.0 4.8 0.00 0.08 0.00 88 1020.2
20260905040004 12 214 0.0 3.2 0.00 0.08 0.00 88 1020.2
20260905035403 12 214 0.0 4.8 0.00 0.08 0.00 88 1020.1
20260905034503 12 214 0.0 4.8 0.00 0.08 0.00 88 1019.9
20260905033605 12 214 0.0 3.2 0.00 0.08 0.00 88 1019.9
20260905032703 12 195 0.0 4.8 0.00 0.08 0.00 88 1019.8
20260905031805 12 162 0.0 3.2 0.00 0.08 0.00 87 1019.7
20260905030903 12 161 0.0 3.2 0.00 0.08 0.00 87 1019.6
20260905030214 12 177 0.0 6.4 0.00 0.08 0.00 87 1019.5
20260905025403 12 192 0.0 8.0 0.00 0.08 0.00 87 1019.4
20260905024505 12 197 0.0 4.8 0.00 0.08 0.00 87 1019.4
20260905023603 12 241 0.0 6.4 0.00 0.08 0.00 87 1019.3
20260905022703 12 240 0.0 4.8 0.00 0.08 0.00 87 1019.2
20260905021803 13 235 0.0 4.8 0.00 0.08 0.00 87 1019.2
20260905020905 13 215 0.0 1.6 0.00 0.08 0.00 87 1019.1
20260905020005 13 218 0.0 3.2 0.00 0.08 0.00 86 1019.1
20260905015406 13 218 0.0 3.2 0.00 0.08 0.00 86 1019.0
20260905014503 13 218 0.0 3.2 0.00 0.08 0.00 86 1019.0
20260905013605 13 216 0.0 4.8 0.00 0.08 0.00 86 1019.0
20260905012703 13 233 0.0 6.4 0.00 0.08 0.00 86 1018.9
20260905011805 13 235 0.0 3.2 0.00 0.08 0.00 85 1018.9
20260905010906 13 238 0.0 4.8 0.00 0.08 0.00 85 1018.9
20260905010004 13 238 0.0 3.2 0.00 0.08 0.00 85 1018.9
20260905005617 13 238 0.0 3.2 0.00 0.08 0.00 84 1018.9
20260905004503 13 238 0.0 4.8 0.00 0.08 0.00 84 1018.9
20260905003605 13 238 0.0 3.2 0.00 0.08 0.00 84 1018.9
20260905002703 13 237 0.0 4.8 0.00 0.08 0.00 84 1018.8
20260905001805 13 237 0.0 4.8 0.00 0.08 0.00 84 1018.8
20260905000905 13 237 0.0 4.8 0.00 0.08 0.00 83 1018.7
20260904235406 13 247 0.0 3.2 0.00 0.08 0.00 83 1018.6
20260904234507 13 247 0.0 3.2 0.00 0.08 0.00 83 1018.7
20260904233817 13 247 0.0 4.8 0.00 0.08 0.00 82 1018.6
20260904232706 13 250 0.0 6.4 0.00 0.08 0.00 82 1018.6
20260904231805 13 252 0.0 3.2 0.00 0.08 0.00 81 1018.6
20260904230906 14 252 0.0 6.4 0.00 0.08 0.00 81 1018.4
20260904230007 14 251 1.6 6.4 0.00 0.08 0.00 81 1018.3
20260904225618 14 250 0.0 3.2 0.00 0.08 0.08 81 1018.3
20260904224506 14 262 0.0 4.8 0.00 0.08 0.08 80 1018.2
20260904223605 14 262 0.0 4.8 0.00 0.08 0.08 80 1018.3
20260904222705 14 261 0.0 3.2 0.00 0.08 0.08 80 1018.2
20260904222017 14 233 1.6 6.4 0.00 0.08 0.08 79 1018.2
20260904220003 15 221 1.6 3.2 0.00 0.08 0.08 78 1018.1
20260904214505 15 243 0.0 4.8 0.00 0.08 0.08 77 1018.1
20260904213608 15 244 0.0 4.8 0.00 0.08 0.08 77 1018.0
20260904212705 15 241 0.0 4.8 0.00 0.08 0.08 77 1018.0
20260904211804 15 239 0.0 3.2 0.00 0.08 0.08 76 1017.9
20260904210904 16 237 0.0 3.2 0.00 0.08 0.08 76 1017.8
20260904210218 16 236 0.0 3.2 0.00 0.08 0.08 76 1017.7
20260904205403 16 234 0.0 4.8 0.00 0.08 0.08 76 1017.8
20260904204717 16 245 0.0 3.2 0.00 0.08 0.08 76 1017.7
20260904203605 16 251 1.6 4.8 0.00 0.08 0.08 75 1017.8
20260904202916 16 246 1.6 6.4 0.00 0.08 0.08 75 1017.7
20260904201805 16 240 0.0 3.2 0.00 0.08 0.08 74 1017.7
20260904200905 16 239 0.0 3.2 0.00 0.08 0.08 73 1017.6
20260904200005 17 238 0.0 3.2 0.00 0.08 0.08 72 1017.7
20260904195403 17 238 0.0 4.8 0.00 0.08 0.08 72 1017.6
20260904194505 17 240 1.6 8.0 0.00 0.08 0.08 71 1017.4
20260904193605 17 246 1.6 6.4 0.00 0.08 0.08 70 1017.2
20260904192705 17 231 1.6 8.0 0.00 0.08 0.08 70 1016.9
20260904191806 17 232 1.6 4.8 0.00 0.08 0.08 69 1016.8
20260904190003 18 249 1.6 11.3 0.00 0.08 0.08 67 1016.4
20260904185408 18 241 1.6 4.8 0.00 0.08 0.08 66 1016.2